This demonstration page uses our WeatherBlox Daily Observations layout. Learn more.

Left ArrowRight Arrow

41.86663, -103.66717

Hourly Observations for April 8, 2016

Temp ( °F °C ) Dew Point ( °F °C ) Humidity (%) Winds ( mph kmh ) Pressure ( in mb ) Visibility ( mi km ) Precip ( " mm )
12:53 am 00:53 Clear 33 0.6 23 -5 66 66 VRB 3 6 30.24 1024 10 16 N/A
1:53 am 01:53 Mostly Clear 30 -1.1 23 -5 75 75 N 7 11 30.22 1023 10 16 N/A
2:53 am 02:53 Clear 31 -0.6 23 -5 72 72 NNE 6 9 30.19 1023 10 16 N/A
3:53 am 03:53 Clear 30 -1.1 22 -5.6 72 72 N N/A 30.18 1022 10 16 N/A
4:53 am 04:53 Clear 28 -2.2 22 -5.6 78 78 NNW 5 7 30.19 1022 10 16 N/A
5:53 am 05:53 Clear 27 -2.8 21 -6.1 78 78 WNW 5 7 30.19 1023 10 16 N/A
6:53 am 06:53 Sunny 29 -1.7 22 -5.6 75 75 N 6 9 30.20 1023 10 16 N/A
7:53 am 07:53 Sunny 36 2.2 26 -3.3 67 67 WNW 5 7 30.21 1023 10 16 N/A
8:53 am 08:53 Sunny 43 6.1 29 -1.7 58 58 WNW 12 19 30.20 1023 10 16 N/A
9:53 am 09:53 Sunny 51 10.6 32 undefined 48 48 NW 10 17 30.20 1023 10 16 N/A
10:53 am 10:53 Sunny 57 13.9 32 undefined 39 39 WNW 13 20 30.19 1023 10 16 N/A
11:53 am 11:53 Sunny 61 16.1 30 -1.1 31 31 N 9 15 30.17 1022 10 16 N/A
12:53 pm 12:53 Mostly Sunny 66 18.9 24 -4.4 20 20 NW 18 30 30.13 1020 10 16 N/A
1:53 pm 13:53 Sunny 68 20 22 -5.6 17 17 NNW 16 26 30.11 1020 10 16 N/A
2:53 pm 14:53 Sunny 68 20 22 -5.6 17 17 NW 13 20 30.08 1019 10 16 N/A
3:53 pm 15:53 Sunny 68 20 22 -5.6 17 17 NNE 10 17 30.06 1018 10 16 N/A
4:53 pm 16:53 Sunny 68 20 22 -5.6 17 17 NNW 7 11 30.04 1017 10 16 N/A
5:53 pm 17:53 Sunny 67 19.4 23 -5 19 19 ENE 3 6 30.04 1017 10 16 N/A
6:53 pm 18:53 Sunny 62 16.7 26 -3.3 25 25 E 7 11 30.03 1017 10 16 N/A
7:53 pm 19:53 Clear 50 10 25 -3.9 38 38 E 9 15 30.04 1017 10 16 N/A
8:53 pm 20:53 Clear 47 8.3 25 -3.9 42 42 E 7 11 30.04 1017 10 16 N/A
9:53 pm 21:53 Clear 44 6.7 26 -3.3 49 49 E 9 15 30.02 1017 10 16 N/A
10:53 pm 22:53 Clear 44 6.7 27 -2.8 51 51 E 10 17 29.99 1016 10 16 N/A
11:53 pm 23:53 Clear 42 5.6 27 -2.8 55 55 ESE 12 19 29.98 1015 10 16 N/A

Powered by AerisWeather